Regional Weather Roundup
Issued by NWS Newport/Morehead, NC

Current Version | Previous Version | Text Only | Print | Product List | Glossary On
Versions: 1 2 3 4 5 6 7 8 9 10 11 12 13 14 15 16 17 18 19 20 21 22 23 24 25 26 27 28 29 30 31 32 33 34 35 36 37 38 39 40 41 42 43 44 45 46 47 48 49 50
000 ASUS42 KMHX 191725 RWRMHX WEATHER ROUNDUP FOR EASTERN NORTH CAROLINA NATIONAL WEATHER SERVICE NEWPORT/MOREHEAD CITY NC 100 PM EDT TUE SEP 19 2017 NOTE: "FAIR" INDICATES FEW OR NO CLOUDS BELOW 12,000 FEET WITH NO SIGNIFICANT WEATHER AND/OR OBSTRUCTIONS TO VISIBILITY NCZ015>017-031-032-045>047-102-103-191800- NORTH COAST CITY SKY/WX TMP DP RH WIND PRES REMARKS EDENTON CLOUDY 76 68 76 N12G20 29.90S ELIZABETH CITY LGT RAIN 72 70 93 NW17G25 29.87S KITTY HAWK CLOUDY 70 69 98 NW8G17 29.81S FOG MANTEO DRIZZLE 71 68 93 N20G28 29.84S $$ NCZ045>047-081-094-103-104-191800- CENTRAL COAST CITY SKY/WX TMP DP RH WIND PRES REMARKS FRISCO CLOUDY 74 69 85 NW14G25 29.84S $$ NCZ095-097-098-100-101-191800- SOUTHERN COAST CITY SKY/WX TMP DP RH WIND PRES REMARKS BEAUFORT N/A 79 70 74 NW14 29.90 CEDAR ISLAND NOT AVBL JACKSONVILLE PTSUNNY 80 68 66 NW15 29.93F PINEY ISLAND N/A N/A N/A N/A NW15G23 29.88F WILMINGTON SUNNY 82 66 58 NW9 29.95F $$ NCZ011>013-027>030-043-044-078>080-089-090>093-098-191800- COASTAL PLAIN CITY SKY/WX TMP DP RH WIND PRES REMARKS AHOSKIE N/A 77 66 69 N9 29.93S CLINTON SUNNY 83 68 60 NW7 29.97F ELIZABETHTOWN NOT AVBL GOLDSBORO MOSUNNY 80 68 67 N9 29.94F GREENVILLE MOSUNNY 81 64 57 N12G17 29.95F HAVELOCK MOSUNNY 81 68 64 N17G23 29.92F KENANSVILLE MOSUNNY 81 68 65 NW10 29.96F KINSTON SUNNY 81 66 61 NW10G16 29.95F NEW BERN PTSUNNY 79 67 66 NW13G23 29.93S RICHLANDS MOSUNNY 81 68 64 VRB5 29.95F ROCKY MOUNT MOSUNNY 80 67 64 NW13 29.96F WASHINGTON PTSUNNY 80 66 62 NW9G17 29.92F WHITEVILLE SUNNY 82 65 56 NW3 29.97F $$ AMZ130-135-150-152-154-156-158-170-250-252-270-ANZ085-086-088-633-658-670-191800- MARINE OBSERVATIONS STATION/POSITION TIME TEMP WIND PRES WAVE SWELL AIR SEA DIR/SP/G HT/PER HT/PER (UTC) (F) (DEG/KT/KT) (MB) (FT/S) (FT/S) CHESAPEAKE LIGHT NOT AVBL 64 E VA BEACH 1650 71 71 340/ 31/ 39 1005.6 15/13 11/13 DUCK 1700 72 75 320/ 20/ 26 1009.2 2 E DUCK 1630 75 N/A 12/13 8/13 OREGON INLET 1700 71 74 310/ 18/ 22 1009.5 13E OREGON INLT 1648 74 N/A 15/13 15/13 HATTERAS CG 1700 72 76 330/ 22/ 29 1010.6 DIAMOND BUOY 1650 72 75 330/ 23/ 29 1009.7 10/12 7/12 CAPE LOOKOUT 1700 77 330/ 16/ 18 1012.1 BEAUFORT LAB 1700 78 74 340/ 11/ 16 1012.0 30 SE NEW RVR IN 1708 76 330/ 14/ 19 1013.1 30 SE NEW RVR IN NOT AVBL 27 SE WRIGHTSVLE 1608 74 80 310/ 14/ 19 1014.1 5 SE WRIGHTSVLE 1708 77 78 330/ 12/ 16 1013.7 225 S CAPE HAT 1650 80 80 300/ 16/ 19 1012.7 9/11 7/11 41 SE CHARLESTON 1710 77 82 340/ 8/ 12 1015.0 $$

USA.gov is the U.S. government's official web portal to all federal, state and local government web resources and services.